User: anonymous   Login
Location: Unspecified
(0.0000°N, 0.0000°E)
Time: 09:30:57
(UTC+00:00)
Language:

SR - Orbit

View from above orbital plane
View from above orbital plane
View from above satellite
View from above satellite

Ground track
Ground track

The orbit data is extracted from the following two-line orbital elements,

1    46U 60007B   17295.93017668 +.00000115 +00000-0 +46336-4 0  9990
2    46 066.6891 143.0971 0205607 134.5564 227.2542 14.49079820998768
Epoch (UTC): 22 October 2017 22:19:27
Eccentricity: 0.0205607
inclination: 66.6891°
perigee height: 582 km
apogee height: 875 km
right ascension of ascending node: 143.0971°
argument of perigee: 134.5564°
revolutions per day: 14.49079820
mean anomaly at epoch: 227.2542°
orbit number at epoch: 99876

The dashed part of the orbit path shows where the satellite is in the earth's shadow,  

DLR